JR3QFB-13 Weather Reports


time (UTC)temp
C
wind
direction
speed
KPH
gust
KPH
rain 1hr
cm
rain 24hr
cm
rain mn
cm
humidity
%
barometer
mb
20260902000153 31 270 1.6 4.8 0.00 0.00 0.00 74 1012.1
20260901234651 31 270 3.2 9.7 0.00 0.00 0.00 75 1012.0
20260901233148 31 270 1.6 4.8 0.00 0.00 0.00 75 1011.6
20260901231650 31 270 1.6 8.0 0.00 0.00 0.00 75 1011.8
20260901230143 31 270 3.2 6.4 0.00 0.00 0.00 74 1011.8
20260901224707 31 270 4.8 6.4 0.00 0.00 0.00 74 1012.0
20260901223138 31 270 1.6 9.7 0.00 0.00 0.00 73 1011.9
20260901221637 30 270 6.4 8.0 0.00 0.00 0.00 74 1011.9
20260901220134 30 270 0.0 4.8 0.00 0.00 0.00 73 1012.0
20260901214631 30 270 1.6 4.8 0.00 0.00 0.00 73 1012.1
20260901213128 30 270 1.6 3.2 0.00 0.00 0.00 73 1012.2
20260901211627 30 270 1.6 4.8 0.00 0.00 0.00 73 1012.3
20260901210123 30 270 1.6 4.8 0.00 0.00 0.00 72 1012.1
20260901204621 30 270 0.0 4.8 0.00 0.00 0.00 72 1012.2
20260901203118 30 270 1.6 1.6 0.00 0.00 0.00 72 1012.2
20260901201617 30 270 1.6 4.8 0.00 0.00 0.00 71 1012.1
20260901200113 30 270 0.0 1.6 0.00 0.00 0.00 70 1012.0
20260901194611 30 270 0.0 3.2 0.00 0.00 0.00 69 1012.0
20260901193108 29 270 1.6 4.8 0.00 0.00 0.00 69 1012.4
20260901191607 29 270 1.6 3.2 0.00 0.00 0.00 68 1012.3
20260901190103 29 270 3.2 4.8 0.00 0.00 0.00 68 1012.3
20260901184601 29 270 0.0 3.2 0.00 0.00 0.00 67 1012.4
20260901183058 28 270 0.0 4.8 0.00 0.00 0.00 64 1012.6
20260901181557 28 270 1.6 4.8 0.00 0.00 0.00 59 1012.6
20260901180053 28 270 1.6 3.2 0.00 0.00 0.00 59 1012.4
20260901174551 28 270 1.6 1.6 0.00 0.00 0.00 58 1012.4
20260901173048 29 270 1.6 3.2 0.00 0.00 0.00 57 1012.4
20260901171547 29 270 3.2 4.8 0.00 0.00 0.00 57 1012.3
20260901170043 29 270 0.0 3.2 0.00 0.00 0.00 56 1012.6
20260901164541 29 270 4.8 6.4 0.00 0.00 0.00 56 1012.4
20260901163038 30 270 0.0 3.2 0.00 0.00 0.00 56 1012.4
20260901161537 30 270 3.2 4.8 0.00 0.00 0.00 56 1012.5
20260901160033 30 270 1.6 3.2 0.00 0.00 0.00 57 1012.5
20260901154531 30 270 1.6 4.8 0.00 0.00 0.00 56 1012.6
20260901153028 30 270 1.6 4.8 0.00 0.00 0.00 57 1012.6
20260901151527 31 270 1.6 4.8 0.00 0.00 0.00 56 1012.6
20260901150023 31 270 1.6 6.4 0.00 0.00 0.00 57 1012.6
20260901144521 31 270 0.0 4.8 0.00 0.00 0.00 57 1012.9
20260901143018 32 270 3.2 4.8 0.00 0.00 0.00 57 1013.2
20260901141517 32 270 1.6 4.8 0.00 0.00 0.00 59 1013.1
20260901140013 32 270 0.0 3.2 0.00 0.00 0.00 59 1013.2
20260901134511 33 270 3.2 4.8 0.00 0.00 0.00 57 1013.1
20260901133008 33 270 0.0 3.2 0.00 0.00 0.00 63 1013.0
20260901131507 33 270 0.0 1.6 0.00 0.00 0.00 75 1013.0
20260901130003 33 270 0.0 1.6 0.00 0.00 0.00 75 1013.0
20260901124501 33 270 0.0 3.2 0.00 0.00 0.00 75 1013.0
20260901122958 33 270 1.6 4.8 0.00 0.00 0.00 75 1013.3
20260901121457 33 270 1.6 4.8 0.00 0.00 0.00 74 1013.4
20260901115953 33 270 3.2 3.2 0.00 0.00 0.00 75 1013.5
20260901114451 33 270 1.6 6.4 0.00 0.00 0.00 74 1013.3
20260901112948 33 270 3.2 11.3 0.00 0.00 0.00 74 1013.1
20260901111447 33 270 9.7 11.3 0.00 0.00 0.00 74 1013.0
20260901105943 33 270 4.8 12.9 0.00 0.00 0.00 74 1012.9
20260901104441 33 270 9.7 9.7 0.00 0.00 0.00 74 1012.6
20260901102938 33 270 4.8 12.9 0.00 0.00 0.00 74 1012.5
20260901101437 34 270 6.4 11.3 0.00 0.00 0.00 73 1012.3
20260901095933 34 270 1.6 12.9 0.00 0.00 0.00 72 1012.2
20260901094431 34 270 11.3 11.3 0.00 0.00 0.00 72 1012.1
20260901092928 34 270 11.3 11.3 0.00 0.00 0.00 72 1012.0
20260901091427 35 270 4.8 8.0 0.00 0.00 0.00 72 1011.9
20260901085923 35 218 6.4 11.3 0.00 0.00 0.00 71 1011.8
20260901084421 35 225 4.8 12.9 0.00 0.00 0.00 70 1011.5
20260901082918 35 225 14.5 14.5 0.00 0.00 0.00 70 1011.4
20260901081417 35 225 3.2 8.0 0.00 0.00 0.00 72 1011.4
20260901075913 35 270 3.2 14.5 0.00 0.00 0.00 71 1011.3
20260901074411 35 225 6.4 12.9 0.00 0.00 0.00 70 1011.1
20260901072908 35 225 6.4 11.3 0.00 0.00 0.00 72 1011.1
20260901071407 35 247 1.6 12.9 0.00 0.00 0.00 72 1011.0
20260901065903 35 180 6.4 12.9 0.00 0.00 0.00 72 1010.9
20260901064403 35 180 9.7 14.5 0.00 0.00 0.00 72 1010.8
20260901062858 35 225 6.4 14.5 0.00 0.00 0.00 72 1010.7
20260901061357 35 180 4.8 6.4 0.00 0.00 0.00 72 1010.8
20260901055853 35 135 4.8 6.4 0.00 0.00 0.00 72 1010.8
20260901054351 34 270 1.6 4.8 0.00 0.00 0.00 72 1010.9
20260901052848 34 270 1.6 4.8 0.00 0.00 0.00 72 1011.0
20260901051347 34 270 1.6 1.6 0.00 0.00 0.00 56 1011.0
20260901045843 34 292 0.0 4.8 0.00 0.00 0.00 72 1011.0
20260901044341 34 270 1.6 4.8 0.00 0.00 0.00 72 1011.1
20260901042838 34 270 4.8 8.0 0.00 0.00 0.00 72 1011.3
20260901041337 34 270 1.6 6.4 0.00 0.00 0.00 72 1011.3
20260901035833 34 270 3.2 4.8 0.00 0.00 0.00 72 1011.5
20260901034331 34 270 0.0 4.8 0.00 0.00 0.00 72 1011.5
20260901032828 34 0 1.6 8.0 0.00 0.00 0.00 72 1011.7
20260901031327 34 0 0.0 8.0 0.00 0.00 0.00 72 1011.8
20260901025823 33 0 3.2 6.4 0.00 0.00 0.00 72 1011.7
20260901024321 33 0 4.8 6.4 0.00 0.00 0.00 73 1011.6
20260901022818 33 0 0.0 8.0 0.00 0.00 0.00 73 1011.9
20260901021317 33 0 4.8 8.0 0.00 0.00 0.00 73 1012.1
20260901015813 33 45 0.0 9.7 0.00 0.00 0.00 73 1012.2
20260901014310 33 0 1.6 11.3 0.00 0.00 0.00 73 1012.6
20260901012808 33 90 4.8 8.0 0.00 0.00 0.00 74 1012.7
20260901011307 33 90 6.4 12.9 0.00 0.00 0.00 74 1012.7
20260901005803 33 112 3.2 8.0 0.00 0.00 0.00 74 1012.9
20260901004300 33 135 1.6 4.8 0.00 0.00 0.00 74 1012.9
20260901002758 33 135 3.2 8.0 0.00 0.00 0.00 74 1012.9
20260901001257 33 135 4.8 11.3 0.00 0.00 0.00 74 1013.0